| time (UTC) | temp F | wind direction | speed knots | gust knots | rain 1hr in | rain 24hr in | rain mn in | humidity % | barometer mb |
| 20260904124516 | 0 | 0.0 | 0.0 | 0.00 | 0.00 | 0.00 | 1003.8 | ||
| 20260904123010 | 0 | 0.0 | 0.0 | 0.00 | 0.00 | 0.00 | 1004.1 | ||
| 20260904121508 | 0 | 0.0 | 0.0 | 0.00 | 0.00 | 0.00 | 1004.3 | ||
| 20260904120004 | 0 | 0.0 | 0.0 | 0.00 | 0.00 | 0.00 | 1004.6 | ||
| 20260904114502 | 44 | 211 | 7.8 | 19.1 | 0.00 | 0.00 | 0.00 | 68 | 1004.9 |
| 20260904113002 | 44 | 282 | 6.1 | 17.4 | 0.00 | 0.00 | 0.00 | 72 | 1004.7 |
| 20260904111503 | 45 | 280 | 6.1 | 24.3 | 0.00 | 0.00 | 0.00 | 69 | 1004.8 |
| 20260904110100 | 45 | 245 | 7.8 | 15.6 | 0.00 | 0.00 | 0.00 | 68 | 1004.6 |
| 20260904104613 | 45 | 279 | 4.3 | 15.6 | 0.00 | 0.00 | 0.00 | 68 | 1004.7 |
| 20260904103100 | 45 | 280 | 4.3 | 15.6 | 0.00 | 0.00 | 0.00 | 70 | 1004.7 |
| 20260904101558 | 45 | 226 | 3.5 | 15.6 | 0.00 | 0.00 | 0.00 | 71 | 1004.6 |
| 20260904100114 | 45 | 233 | 5.2 | 14.8 | 0.00 | 0.00 | 0.00 | 71 | 1004.8 |
| 20260904094605 | 45 | 325 | 4.3 | 14.8 | 0.00 | 0.00 | 0.00 | 72 | 1005.0 |
| 20260904093058 | 45 | 238 | 4.3 | 13.9 | 0.00 | 0.00 | 0.00 | 72 | 1004.9 |
| 20260904091552 | 45 | 257 | 3.5 | 11.3 | 0.00 | 0.00 | 0.00 | 70 | 1004.9 |
| 20260904090051 | 45 | 171 | 4.3 | 21.7 | 0.00 | 0.00 | 0.00 | 71 | 1005.1 |
| 20260904084550 | 45 | 267 | 6.1 | 19.1 | 0.00 | 0.00 | 0.00 | 70 | 1005.1 |
| 20260904083050 | 45 | 283 | 3.5 | 13.9 | 0.00 | 0.00 | 0.00 | 70 | 1005.4 |
| 20260904081546 | 45 | 320 | 4.3 | 10.4 | 0.00 | 0.00 | 0.00 | 68 | 1005.5 |
| 20260904080042 | 45 | 249 | 3.5 | 14.8 | 0.00 | 0.00 | 0.00 | 69 | 1005.5 |
| 20260904074540 | 45 | 55 | 3.5 | 14.8 | 0.00 | 0.00 | 0.00 | 70 | 1005.5 |
| 20260904073038 | 44 | 246 | 5.2 | 15.6 | 0.00 | 0.00 | 0.00 | 70 | 1005.7 |
| 20260904071538 | 44 | 190 | 3.5 | 15.6 | 0.00 | 0.00 | 0.00 | 70 | 1005.7 |
| 20260904070042 | 45 | 275 | 3.5 | 20.0 | 0.00 | 0.00 | 0.00 | 69 | 1005.6 |
| 20260904064535 | 45 | 286 | 5.2 | 14.8 | 0.00 | 0.00 | 0.00 | 68 | 1005.5 |
| 20260904063040 | 45 | 153 | 5.2 | 13.9 | 0.00 | 0.00 | 0.00 | 69 | 1005.4 |
| 20260904061536 | 44 | 263 | 1.7 | 12.2 | 0.00 | 0.00 | 0.00 | 69 | 1005.5 |
| 20260904060105 | 44 | 267 | 3.5 | 11.3 | 0.00 | 0.00 | 0.00 | 70 | 1005.4 |
| 20260904054534 | 45 | 232 | 3.5 | 9.6 | 0.00 | 0.00 | 0.00 | 72 | 1005.3 |
| 20260904053107 | 45 | 280 | 3.5 | 13.0 | 0.00 | 0.00 | 0.00 | 73 | 1005.4 |
| 20260904051529 | 45 | 227 | 2.6 | 8.7 | 0.00 | 0.00 | 0.00 | 73 | 1005.4 |
| 20260904050033 | 46 | 300 | 5.2 | 13.9 | 0.00 | 0.00 | 0.00 | 71 | 1005.4 |
| 20260904044525 | 46 | 214 | 7.0 | 18.2 | 0.00 | 0.00 | 0.00 | 70 | 1005.5 |
| 20260904043024 | 46 | 244 | 7.0 | 21.7 | 0.00 | 0.00 | 0.00 | 69 | 1005.5 |
| 20260904041527 | 46 | 290 | 3.5 | 11.3 | 0.00 | 0.00 | 0.00 | 71 | 1005.5 |
| 20260904040024 | 46 | 255 | 4.3 | 10.4 | 0.00 | 0.00 | 0.00 | 70 | 1005.4 |
| 20260904034522 | 46 | 277 | 2.6 | 16.5 | 0.00 | 0.00 | 0.00 | 69 | 1005.2 |
| 20260904033021 | 47 | 12 | 5.2 | 14.8 | 0.00 | 0.00 | 0.00 | 68 | 1005.0 |
| 20260904031518 | 47 | 296 | 3.5 | 13.0 | 0.00 | 0.00 | 0.00 | 68 | 1004.9 |
| 20260904030017 | 48 | 199 | 2.6 | 13.0 | 0.00 | 0.00 | 0.00 | 66 | 1005.0 |
| 20260904024517 | 48 | 227 | 1.7 | 13.9 | 0.00 | 0.00 | 0.00 | 64 | 1005.0 |
| 20260904023016 | 49 | 248 | 4.3 | 11.3 | 0.00 | 0.00 | 0.00 | 62 | 1005.0 |
| 20260904021521 | 49 | 273 | 3.5 | 8.7 | 0.00 | 0.00 | 0.00 | 60 | 1005.0 |
| 20260904020014 | 50 | 248 | 2.6 | 7.8 | 0.00 | 0.00 | 0.00 | 59 | 1005.0 |
| 20260904014513 | 51 | 246 | 3.5 | 12.2 | 0.00 | 0.00 | 0.00 | 58 | 1005.2 |
| 20260904013013 | 51 | 206 | 4.3 | 12.2 | 0.00 | 0.00 | 0.00 | 56 | 1005.6 |
| 20260904011512 | 52 | 253 | 5.2 | 17.4 | 0.00 | 0.00 | 0.00 | 53 | 1005.4 |
| 20260904010011 | 55 | 256 | 5.2 | 14.8 | 0.00 | 0.00 | 0.00 | 49 | 1005.1 |
| 20260904004508 | 56 | 263 | 3.5 | 13.0 | 0.00 | 0.00 | 0.00 | 48 | 1005.4 |
| 20260904003007 | 56 | 234 | 6.1 | 13.0 | 0.00 | 0.00 | 0.00 | 46 | 1005.7 |
| 20260904001507 | 57 | 244 | 4.3 | 11.3 | 0.00 | 0.00 | 0.00 | 43 | 1005.5 |
| 20260904000006 | 58 | 293 | 4.3 | 13.0 | 0.00 | 0.00 | 0.00 | 42 | 1005.6 |
| 20260903234506 | 58 | 252 | 3.5 | 16.5 | 0.00 | 0.00 | 0.00 | 42 | 1005.4 |
| 20260903233005 | 59 | 232 | 1.7 | 14.8 | 0.00 | 0.00 | 0.00 | 41 | 1005.5 |
| 20260903231505 | 60 | 264 | 3.5 | 12.2 | 0.00 | 0.00 | 0.00 | 40 | 1005.6 |
| 20260903230004 | 59 | 179 | 3.5 | 13.0 | 0.00 | 0.00 | 0.00 | 39 | 1006.1 |
| 20260903224501 | 59 | 22 | 3.5 | 12.2 | 0.00 | 0.00 | 0.00 | 38 | 1006.3 |
| 20260903223134 | 58 | 225 | 5.2 | 16.5 | 0.00 | 0.00 | 0.00 | 36 | 1006.7 |
| 20260903220057 | 60 | 256 | 7.8 | 19.1 | 0.00 | 0.00 | 0.00 | 32 | 1006.7 |
| 20260903214603 | 60 | 259 | 2.6 | 17.4 | 0.00 | 0.00 | 0.00 | 35 | 1007.0 |
| 20260903213107 | 60 | 255 | 6.1 | 15.6 | 0.00 | 0.00 | 0.00 | 31 | 1007.1 |
| 20260903210113 | 60 | 291 | 7.8 | 20.0 | 0.00 | 0.00 | 0.00 | 31 | 1007.5 |
| 20260903204551 | 61 | 221 | 3.5 | 15.6 | 0.00 | 0.00 | 0.00 | 32 | 1007.4 |
| 20260903203052 | 60 | 179 | 6.1 | 20.0 | 0.00 | 0.00 | 0.00 | 32 | 1007.5 |
| 20260903200046 | 60 | 294 | 2.6 | 17.4 | 0.00 | 0.00 | 0.00 | 32 | 1007.8 |
| 20260903194548 | 60 | 118 | 3.5 | 11.3 | 0.00 | 0.00 | 0.00 | 29 | 1008.1 |
| 20260903193045 | 60 | 310 | 5.2 | 17.4 | 0.00 | 0.00 | 0.00 | 29 | 1008.1 |
| 20260903190040 | 61 | 256 | 2.6 | 16.5 | 0.00 | 0.00 | 0.00 | 27 | 1008.6 |
| 20260903184549 | 60 | 268 | 2.6 | 10.4 | 0.00 | 0.00 | 0.00 | 28 | 1008.8 |
| 20260903183038 | 59 | 46 | 3.5 | 19.1 | 0.00 | 0.00 | 0.00 | 29 | 1008.6 |
| 20260903180038 | 56 | 296 | 6.1 | 17.4 | 0.00 | 0.00 | 0.00 | 27 | 1008.9 |
| 20260903174535 | 57 | 232 | 3.5 | 12.2 | 0.00 | 0.00 | 0.00 | 27 | 1008.9 |
| 20260903173035 | 57 | 215 | 2.6 | 11.3 | 0.00 | 0.00 | 0.00 | 30 | 1008.9 |
| 20260903170032 | 56 | 276 | 2.6 | 15.6 | 0.00 | 0.00 | 0.00 | 34 | 1009.0 |
| 20260903164530 | 56 | 279 | 3.5 | 12.2 | 0.00 | 0.00 | 0.00 | 33 | 1009.0 |
| 20260903163028 | 55 | 268 | 7.0 | 16.5 | 0.00 | 0.00 | 0.00 | 34 | 1009.1 |
| 20260903160034 | 53 | 302 | 4.3 | 13.0 | 0.00 | 0.00 | 0.00 | 35 | 1009.4 |
| 20260903154521 | 52 | 323 | 5.2 | 12.2 | 0.00 | 0.00 | 0.00 | 36 | 1009.6 |
| 20260903153018 | 51 | 277 | 6.1 | 17.4 | 0.00 | 0.00 | 0.00 | 36 | 1009.5 |
| 20260903150017 | 50 | 256 | 5.2 | 12.2 | 0.00 | 0.00 | 0.00 | 36 | 1009.6 |
| 20260903144532 | 49 | 304 | 7.0 | 14.8 | 0.00 | 0.00 | 0.00 | 37 | 1009.3 |
| 20260903143015 | 48 | 287 | 6.1 | 16.5 | 0.00 | 0.00 | 0.00 | 37 | 1009.0 |
| 20260903140014 | 0 | 0.0 | 0.0 | 0.00 | 0.00 | 0.00 | 1008.3 | ||
| 20260903134509 | 0 | 0.0 | 0.0 | 0.00 | 0.00 | 0.00 | 1008.2 | ||
| 20260903133013 | 0 | 0.0 | 0.0 | 0.00 | 0.00 | 0.00 | 1008.2 | ||
| 20260903130059 | 0 | 0.0 | 0.0 | 0.00 | 0.00 | 0.00 | 1008.6 |